• In Netherlands
  • List of Countries
  • For 7 days
  • Water Temperature
  • Satellite Maps
  • Weather Map
  • Weather Widgets
  • user-avatar
    Login

    Hourly Weather Mahilyow

    Today, 25 June, Sunday

    Time Temperature Precipitation Wind Pressure Humidity
    00:00 +15°C° 0 mm 2 mps 742 mmHg 98%
    01:00 +15°C° 0 mm 2 mps 742 mmHg 98%
    02:00 +14°C° 0 mm 2 mps 742 mmHg 98%
    03:00 +14°C° 0 mm 2 mps 742 mmHg 98%
    04:00 +14°C° 0 mm 2 mps 742 mmHg 98%
    05:00 +14°C° 0 mm 2 mps 742 mmHg 97%
    06:00 +14°C° 0 mm 3 mps 742 mmHg 94%
    07:00 +16°C° 0 mm 3 mps 742 mmHg 91%
    08:00 +17°C° 0 mm 4 mps 743 mmHg 88%
    09:00 +18°C° 0.2 mm 4 mps 743 mmHg 86%
    10:00 +19°C° 0.2 mm 4 mps 743 mmHg 83%
    11:00 +20°C° 0.2 mm 5 mps 743 mmHg 80%
    12:00 +21°C° 0.2 mm 5 mps 743 mmHg 75%
    13:00 +21°C° 0.2 mm 5 mps 743 mmHg 70%
    14:00 +22°C° 0.2 mm 5 mps 742 mmHg 65%
    15:00 +22°C° 0 mm 5 mps 742 mmHg 61%
    16:00 +23°C° 0 mm 4 mps 743 mmHg 58%
    17:00 +23°C° 0 mm 4 mps 743 mmHg 55%
    18:00 +21°C° 0 mm 3 mps 742 mmHg 63%
    19:00 +20°C° 0 mm 2 mps 742 mmHg 72%
    20:00 +19°C° 0 mm 1 mps 742 mmHg 80%
    21:00 +17°C° 0 mm 2 mps 742 mmHg 82%
    22:00 +17°C° 0 mm 2 mps 743 mmHg 84%
    23:00 +16°C° 0 mm 2 mps 743 mmHg 86%

    Tomorrow, 26 June, Monday

    Time Temperature Precipitation Wind Pressure Humidity
    00:00 +16°C° 0 mm 2 mps 742 mmHg 88%
    01:00 +16°C° 0 mm 2 mps 742 mmHg 90%
    02:00 +16°C° 0 mm 2 mps 742 mmHg 92%
    03:00 +16°C° 0.2 mm 3 mps 741 mmHg 92%
    04:00 +17°C° 0.2 mm 3 mps 741 mmHg 92%
    05:00 +17°C° 0.2 mm 3 mps 741 mmHg 92%
    06:00 +18°C° 0.5 mm 3 mps 741 mmHg 90%
    07:00 +20°C° 0.5 mm 3 mps 741 mmHg 89%
    08:00 +21°C° 0.5 mm 3 mps 741 mmHg 88%
    09:00 +22°C° 0.4 mm 3 mps 741 mmHg 84%
    10:00 +22°C° 0.4 mm 4 mps 741 mmHg 79%
    11:00 +23°C° 0.4 mm 4 mps 741 mmHg 75%
    12:00 +23°C° 0.4 mm 4 mps 740 mmHg 76%
    13:00 +23°C° 0.4 mm 4 mps 740 mmHg 77%
    14:00 +22°C° 0.4 mm 4 mps 740 mmHg 77%
    15:00 +23°C° 0.3 mm 4 mps 740 mmHg 74%
    16:00 +23°C° 0.3 mm 4 mps 740 mmHg 71%
    17:00 +23°C° 0.3 mm 4 mps 740 mmHg 67%
    18:00 +21°C° 0 mm 3 mps 740 mmHg 70%
    19:00 +20°C° 0 mm 3 mps 740 mmHg 72%
    20:00 +18°C° 0 mm 2 mps 741 mmHg 75%
    21:00 +17°C° 0 mm 2 mps 741 mmHg 76%
    22:00 +16°C° 0 mm 2 mps 741 mmHg 78%
    23:00 +15°C° 0 mm 2 mps 742 mmHg 79%

    Day after tomorrow, 27 June, Tuesday

    Time Temperature Precipitation Wind Pressure Humidity
    00:00 +15°C° 0 mm 2 mps 742 mmHg 81%
    01:00 +14°C° 0 mm 2 mps 742 mmHg 83%
    02:00 +14°C° 0 mm 2 mps 743 mmHg 85%
    03:00 +13°C° 0 mm 2 mps 743 mmHg 87%
    04:00 +13°C° 0 mm 2 mps 743 mmHg 88%
    05:00 +12°C° 0 mm 2 mps 744 mmHg 90%
    06:00 +13°C° 0 mm 3 mps 744 mmHg 81%
    07:00 +16°C° 0 mm 3 mps 744 mmHg 72%
    08:00 +17°C° 0 mm 3 mps 745 mmHg 62%
    09:00 +19°C° 0 mm 4 mps 745 mmHg 56%
    10:00 +20°C° 0 mm 4 mps 745 mmHg 50%
    11:00 +21°C° 0 mm 4 mps 745 mmHg 44%
    12:00 +22°C° 0 mm 4 mps 745 mmHg 42%
    13:00 +23°C° 0 mm 4 mps 745 mmHg 39%
    14:00 +25°C° 0 mm 4 mps 745 mmHg 37%
    15:00 +23°C° 0 mm 4 mps 745 mmHg 38%
    16:00 +23°C° 0 mm 4 mps 745 mmHg 39%
    17:00 +23°C° 0 mm 4 mps 745 mmHg 40%
    18:00 +21°C° 0 mm 3 mps 745 mmHg 49%
    19:00 +19°C° 0 mm 2 mps 745 mmHg 58%
    20:00 +17°C° 0 mm 2 mps 745 mmHg 67%
    21:00 +16°C° 0 mm 2 mps 745 mmHg 70%
    22:00 +15°C° 0 mm 1 mps 745 mmHg 72%
    23:00 +14°C° 0 mm 1 mps 745 mmHg 74%

    28 June, Wednesday

    Time Temperature Precipitation Wind Pressure Humidity
    00:00 +13°C° 0 mm 1 mps 746 mmHg 77%
    01:00 +13°C° 0 mm 1 mps 746 mmHg 81%
    02:00 +12°C° 0 mm 1 mps 746 mmHg 84%
    03:00 +13°C° 0 mm 1 mps 746 mmHg 83%
    04:00 +13°C° 0 mm 1 mps 746 mmHg 82%
    05:00 +14°C° 0 mm 1 mps 747 mmHg 82%
    06:00 +16°C° 0 mm 1 mps 747 mmHg 73%
    07:00 +19°C° 0 mm 1 mps 747 mmHg 64%
    08:00 +22°C° 0 mm 1 mps 747 mmHg 55%
    09:00 +23°C° 0 mm 1 mps 747 mmHg 51%
    10:00 +25°C° 0 mm 1 mps 747 mmHg 46%
    11:00 +26°C° 0 mm 1 mps 747 mmHg 42%
    12:00 +27°C° 0 mm 1 mps 747 mmHg 40%
    13:00 +28°C° 0 mm 1 mps 747 mmHg 38%
    14:00 +28°C° 0 mm 1 mps 746 mmHg 36%
    15:00 +28°C° 0 mm 1 mps 746 mmHg 37%
    16:00 +28°C° 0 mm 1 mps 746 mmHg 39%
    17:00 +28°C° 0 mm 2 mps 746 mmHg 41%
    18:00 +26°C° 0 mm 2 mps 746 mmHg 49%
    19:00 +24°C° 0 mm 2 mps 745 mmHg 57%
    20:00 +21°C° 0 mm 2 mps 745 mmHg 66%
    21:00 +20°C° 0 mm 2 mps 745 mmHg 70%
    22:00 +19°C° 0 mm 2 mps 746 mmHg 74%
    23:00 +19°C° 0 mm 3 mps 746 mmHg 78%

    29 June, Thursday

    Time Temperature Precipitation Wind Pressure Humidity
    00:00 +19°C° 0 mm 3 mps 746 mmHg 81%
    01:00 +19°C° 0 mm 3 mps 745 mmHg 85%
    02:00 +19°C° 0 mm 3 mps 745 mmHg 89%
    03:00 +18°C° 0.1 mm 3 mps 745 mmHg 90%
    04:00 +18°C° 0.1 mm 3 mps 745 mmHg 92%
    05:00 +18°C° 0.1 mm 3 mps 745 mmHg 93%
    06:00 +20°C° 0 mm 4 mps 745 mmHg 86%
    07:00 +22°C° 0 mm 4 mps 745 mmHg 80%
    08:00 +23°C° 0 mm 4 mps 745 mmHg 73%
    09:00 +26°C° 0 mm 5 mps 744 mmHg 66%
    10:00 +28°C° 0 mm 5 mps 744 mmHg 58%
    11:00 +30°C° 0 mm 6 mps 744 mmHg 51%
    12:00 +32°C° 0 mm 6 mps 744 mmHg 48%
    13:00 +33°C° 0 mm 6 mps 743 mmHg 46%
    14:00 +34°C° 0 mm 6 mps 743 mmHg 44%
    15:00 +34°C° 0.1 mm 6 mps 743 mmHg 45%
    16:00 +33°C° 0.1 mm 5 mps 742 mmHg 47%
    17:00 +33°C° 0.1 mm 5 mps 742 mmHg 48%
    18:00 +32°C° 0 mm 5 mps 742 mmHg 54%
    19:00 +29°C° 0 mm 4 mps 742 mmHg 60%
    20:00 +28°C° 0 mm 4 mps 742 mmHg 65%
    21:00 +27°C° 0.2 mm 4 mps 742 mmHg 69%
    22:00 +26°C° 0.2 mm 4 mps 742 mmHg 73%
    23:00 +25°C° 0.2 mm 4 mps 742 mmHg 78%

    30 June, Friday

    Time Temperature Precipitation Wind Pressure Humidity
    00:00 +23°C° 0.2 mm 4 mps 742 mmHg 79%
    01:00 +23°C° 0.2 mm 4 mps 741 mmHg 81%
    02:00 +23°C° 0.2 mm 4 mps 741 mmHg 82%
    03:00 +22°C° 2.3 mm 4 mps 741 mmHg 85%
    04:00 +22°C° 2.3 mm 3 mps 741 mmHg 88%
    05:00 +22°C° 2.3 mm 3 mps 742 mmHg 91%
    06:00 +23°C° 0.1 mm 4 mps 741 mmHg 86%
    07:00 +25°C° 0.1 mm 5 mps 741 mmHg 80%
    08:00 +26°C° 0.1 mm 5 mps 741 mmHg 75%
    09:00 +28°C° 0 mm 6 mps 741 mmHg 66%
    10:00 +30°C° 0 mm 6 mps 741 mmHg 56%
    11:00 +33°C° 0 mm 7 mps 741 mmHg 47%
    12:00 +34°C° 0 mm 7 mps 741 mmHg 43%
    13:00 +35°C° 0 mm 7 mps 741 mmHg 38%
    14:00 +36°C° 0 mm 7 mps 740 mmHg 34%
    15:00 +35°C° 0 mm 6 mps 740 mmHg 36%
    16:00 +35°C° 0 mm 5 mps 740 mmHg 38%
    17:00 +34°C° 0 mm 4 mps 740 mmHg 39%
    18:00 +31°C° 0 mm 3 mps 740 mmHg 47%
    19:00 +28°C° 0 mm 3 mps 741 mmHg 54%
    20:00 +26°C° 0 mm 2 mps 741 mmHg 62%
    21:00 +25°C° 0 mm 3 mps 741 mmHg 64%
    22:00 +24°C° 0 mm 3 mps 741 mmHg 66%
    23:00 +24°C° 0 mm 3 mps 741 mmHg 69%
    Show more